Regional Weather Roundup
Issued by NWS

Home | Current Version | Previous Version | Text Only | Print | Product List | Glossary On
Versions: 1 2 3 4 5 6 7 8 9 10 11 12 13 14 15 16 17 18 19 20 21 22 23 24 25 26 27 28 29 30 31 32 33 34 35 36 37 38 39 40 41 42 43 44 45 46 47 48 49 50
000
ASUS44 KEWX 221302
RWRTX
SOUTH TEXAS REGIONAL WEATHER ROUNDUP
NATIONAL WEATHER SERVICE AUSTIN/SAN ANTONIO TX
800 AM CDT WED OCT 22 2014

NOTE: "FAIR" INDICATED FEW OR NO CLOUDS BELOW 12,000 FEET WITH NO
SIGNIFICANT WEATHER AND/OR OBSTRUCTIONS TO VISIBILITY.

* - THESE STATIONS ARE NOT NWS OR FAA STATIONS...AND ARE NOT SUBJECT
    TO NWS AND FAA QUALITY CONTROL.

TXZ171-172-183>190-221400-
TEXAS HILL COUNTRY AND EDWARDS PLATEAU

CITY           SKY/WX    TMP DP  RH WIND       PRES   REMARKS
JUNCTION       CLOUDY    62  53  72 CALM      30.11R
*LLANO         NOT AVBL
BURNET         CLOUDY    61  53  75 NE3       30.12R
*HORSESHOE BAY CLOUDY    58  54  84 CALM      30.10R
*KERRVILLE     PTCLDY    56  52  86 CALM      30.12R
*FREDERICKSBRG CLOUDY    54  52  92 NW5       30.11R
*ROCKSPRINGS   MOCLDY    64  55  72 E6        30.13R
*BOERNE STAGE  MOCLDY    52  46  82 CALM      30.12R
*CASTROVILLE   MOCLDY    62  50  66 CALM      30.10R HAZE
HONDO          PTCLDY    55  52  89 NE8       30.10R
*UVALDE        CLOUDY    68  57  68 E8        30.08S
DEL RIO        CLOUDY    68  57  68 E7        30.05R
LAUGHLIN AFB   CLOUDY    67  58  75 SE5       30.06R
CARRIZO SPRGS  CLEAR     63  61  94 E3        30.04R
$$

TXZ173-191>194-202-209-217>225-228-221400-
CENTRAL AND SOUTH CENTRAL TEXAS

CITY           SKY/WX    TMP DP  RH WIND       PRES   REMARKS
GEORGETOWN     CLEAR     61  55  82 N3        30.10R
AUSTIN/BERGSTM CLOUDY    59  57  93 CALM      30.09R
AUSTIN/MABRY   CLOUDY    62  58  86 CALM      30.10R
*AUSTIN/EXEC   CLOUDY    63  57  82 CALM      30.10R
*LAGO VISTA    NOT AVBL
SAN MARCOS     CLEAR     61  50  67 N3        30.10R
NEW BRAUNFELS  MOCLDY    63  56  78 N6        30.07R
RANDOLPH AFB   MOCLDY    60  51  72 N6        30.09R
PT SAN ANTONIO MOCLDY    62  52  71 N3        30.07R
SAN ANTONIO    MOCLDY    65  53  65 CALM      30.09R
STINSON FIELD  MOCLDY    64  52  64 N3        30.06R
*PLEASANTON    MOCLDY    59  54  83 N3        30.07R
*LA GRANGE     PTCLDY    61  59  94 CALM      30.07R
*GIDDINGS      PTCLDY    60  57  91 CALM      30.12R
*GONZALES      PTCLDY    63  57  81 CALM      30.07R
$$

TXZ163>164-176>182-195>201-210>213-226-227-235-221400-
SOUTHEAST TEXAS

CITY           SKY/WX    TMP DP  RH WIND       PRES   REMARKS
COLLEGE STN    PTCLDY    63  60  90 NE6       30.09R
*BRYAN         PTCLDY    60  59  97 NE3       30.11R FOG
*CALDWELL      PTCLDY    61  59  94 CALM      30.12R
*CROCKETT      PTCLDY    61  61 100 NE3       30.14R FOG
*BRENHAM       PTCLDY    63  61  94 CALM      30.10R
HUNTSVILLE     CLOUDY    57  56  96 CALM      30.10R FOG
CONROE         CLEAR     59  58  96 CALM      30.09R FOG
HOUSTON BUSH   PTCLDY    62  60  93 NE7       30.08R
HOUSTON HOBBY  PTCLDY    65  62  90 NE5       30.07R
*HOUSTON SW AP CLEAR     55  55  99 NE5       30.07S FOG
PEARLAND       CLEAR     64  62  93 NE5       30.08R FOG
HOUSTON HOOKS  CLEAR     64  61  90 NE3       30.08R
ELLINGTON FLD  NOT AVBL
SUGAR LAND     CLEAR     65  61  87 NE5       30.06R
*HOUSTON EXEC  CLEAR     57 N/A N/A NE6       30.09R FOG
*CLEVELAND MUN NOT AVBL
*WHARTON       PTCLDY    61  59  93 NE5       30.06R
*COLUMBUS      FAIR      61  59  94 N3        30.07R
$$

TXZ214>216-236>238-221400-
THE UPPER TEXAS COAST

CITY           SKY/WX    TMP DP  RH WIND       PRES   REMARKS
*ORANGE        CLEAR    N/A N/A N/A CALM      30.09R HAZE
PORT ARTHUR    CLEAR     64  60  87 NE7       30.07R
GALVESTON      CLEAR     70  67  90 N10       30.06R
ANGLETON       CLEAR     61  61 100 N6        30.05R
*BAY CITY        N/A     64  63  99 NE6       30.04S
PALACIOS       NOT AVBL
$$

TXZ229>234-239>247-221400-
TEXAS COASTAL BEND AND RIO GRANDE PLAINS

CITY           SKY/WX    TMP DP  RH WIND       PRES   REMARKS
VICTORIA       PTCLDY    61  57  87 NE6       30.05R
*BEEVILLE      PTCLDY    66  59  79 NE6       30.04R
ROCKPORT       CLEAR     68  65  90 N7        30.01R
*PORT ARANSAS  PTCLDY    76  67  72 E9        30.01R
*PORT LAVACA   PTCLDY    66  63  90 NE9       30.04R
*INGLESIDE     PTCLDY    69  66  92 NE6       30.01R
CORPUS CHRISTI PTCLDY    67  65  93 N9        30.02R
CORPUS NAS     PTCLDY    75  69  81 E9        30.00R
*ROBSTOWN      RAIN      66  65  94 N8        30.02
ALICE          CLEAR     65  62  90 MISG      30.02R
KINGSVILLE NAS PTCLDY    66  65  96 N6        30.01R
COTULLA        CLEAR     66  57  72 NE7       30.05R
*FAITH RANCH   MOCLDY    66  64  94 E8        30.05R
LAREDO         CLEAR     68  67  96 NE9       30.05R
$$

TXZ248>255-221400-
DEEP SOUTH TEXAS

CITY           SKY/WX    TMP DP  RH WIND       PRES   REMARKS
BROWNSVILLE    HVY RAIN  75  72  90 SW8G21    29.98R FOG
PORT ISABEL    MOCLDY    78  71  79 NE9       29.97R
*SOUTH PADRE   PTCLDY    79  72  78 E15       29.96R
HARLINGEN      MOCLDY    71  70  96 N3        29.97R
*HEBBRONVILLE  PTCLDY    65  63  92 NE3       30.04R
MCALLEN        PTCLDY    71  69  93 N5        29.99R
*WESLACO       NOT AVBL
FALFURRIAS     CLEAR     65  64  96 N5        30.00R
EDINBURG       PTCLDY    70  67  91 N5        30.00R FOG
*ZAPATA        CLOUDY    69  68  98 CALM      30.01S
$$

TXZ213>215-236>238-242>244-246-247-251-254-255-221400-
CMAN STATIONS

STATION/POSITION TIME  TEMP    WIND        PRES    WAVE
                       AIR SEA DIR/SP/G            HT/PER
                 (UTC) (F)     (DEG/KT/KT) (MB)    (FT/S)
SABINE PASS      1200   64 76   40/  8/ 10 1018.0
SEA RIM ST PARK  1200   64      50/  6/  7 1018.1
NORTH JETTY/GLS  1200   72 77   80/ 15/ 16   N/A
EAGLE POINT      1200   71 74   90/ 12/ 15 1018.0
MORGANS POINT    1200   67      50/  6/  7 1018.0
MISSION/ARANSAS  1200           30/ 11     1017.0
PORT O`CONNOR    1200           40/ 12/ 14   N/A
PORT ARANSAS     1200   78 78   70/ 15/ 18 1015.9
MALAQUITE BEACH  1200   78 78   70/ 14/ 16 1015.1
BAFFIN BAY       1200   77 81   80/ 10/ 12 1015.4
PORT ISABEL      1200   79 79   50/ 11/ 14 1014.4
$$

GMZ080-GMZ150>470-221400-
OFFSHORE BUOY REPORTS

STATION/POSITION TIME  TEMP    WIND        PRES    WAVE
                       AIR SEA DIR/SP/G            HT/PER
                 (UTC) (F)     (DEG/KT/KT) (MB)    (FT/S)
20 E GALVESTON   1300   75 77   70/ 16/ 17 1016.8    4/ 6
90 E PT ARANSAS  1300   78 81   80/ 17/ 19 1016.1    6/ 7
35 NE PT MANSFLD 1200   79 81   80/ 17/ 19 1014.1    6/ 7
200 E PT ISABEL  1200   79 81   60/ 17/ 21 1012.9    6/ 7
$$



USA.gov is the U.S. government's official web portal to all federal, state and local government web resources and services.